#Datum;Uhrzeit;WR;Pac;DaySum;Status;WR;Pac;DaySum;Status;Pdc1;Udc;Temp;WR;Pac;DaySum;Status;Pdc1;Udc;Temp;WR;Pac;DaySum;Status;Pdc1;Udc;Temp;WR;Pac;DaySum;Status;Pdc1;Pdc2;Udc1;Udc2;Temp;WR;Pac;DaySum;Status;Pdc1;Pdc2;Udc1;Udc2;Temp;WR;Pac;DaySum;Status;Pdc1;Udc;Temp;WR;Pac;DaySum;Status;Pdc1;Udc;Temp;WR;Pac;DaySum;Status;Pdc1;Udc;Temp
20.11.20;23:55:00;1;372;10316;0;2;0;13162;0;0;0;0;3;0;8821;0;0;0;0;4;0;10153;0;0;0;0;5;0;0;0;0;0;0;0;0;6;0;25205;0;0;0;0;0;0;7;0;23486;0;0;0;0;8;0;12141;0;0;0;0;9;0;12308;0;0;0;0
20.11.20;23:50:00;1;395;10285;0;2;0;13162;0;0;0;0;3;0;8821;0;0;0;0;4;0;10153;0;0;0;0;5;0;0;0;0;0;0;0;0;6;0;25205;0;0;0;0;0;0;7;0;23486;0;0;0;0;8;0;12141;0;0;0;0;9;0;12308;0;0;0;0
20.11.20;23:45:00;1;404;10252;0;2;0;13162;0;0;0;0;3;0;8821;0;0;0;0;4;0;10153;0;0;0;0;5;0;0;0;0;0;0;0;0;6;0;25205;0;0;0;0;0;0;7;0;23486;0;0;0;0;8;0;12141;0;0;0;0;9;0;12308;0;0;0;0
20.11.20;23:40:00;1;444;10220;0;2;0;13162;0;0;0;0;3;0;8821;0;0;0;0;4;0;10153;0;0;0;0;5;0;0;0;0;0;0;0;0;6;0;25205;0;0;0;0;0;0;7;0;23486;0;0;0;0;8;0;12141;0;0;0;0;9;0;12308;0;0;0;0
20.11.20;23:35:00;1;451;10183;0;2;0;13162;0;0;0;0;3;0;8821;0;0;0;0;4;0;10153;0;0;0;0;5;0;0;0;0;0;0;0;0;6;0;25205;0;0;0;0;0;0;7;0;23486;0;0;0;0;8;0;12141;0;0;0;0;9;0;12308;0;0;0;0
20.11.20;23:30:00;1;473;10144;0;2;0;13162;0;0;0;0;3;0;8821;0;0;0;0;4;0;10153;0;0;0;0;5;0;0;0;0;0;0;0;0;6;0;25205;0;0;0;0;0;0;7;0;23486;0;0;0;0;8;0;12141;0;0;0;0;9;0;12308;0;0;0;0
20.11.20;23:25:00;1;481;10106;0;2;0;13162;0;0;0;0;3;0;8821;0;0;0;0;4;0;10153;0;0;0;0;5;0;0;0;0;0;0;0;0;6;0;25205;0;0;0;0;0;0;7;0;23486;0;0;0;0;8;0;12141;0;0;0;0;9;0;12308;0;0;0;0
20.11.20;23:20:00;1;383;10066;0;2;0;13162;0;0;0;0;3;0;8821;0;0;0;0;4;0;10153;0;0;0;0;5;0;0;0;0;0;0;0;0;6;0;25205;0;0;0;0;0;0;7;0;23486;0;0;0;0;8;0;12141;0;0;0;0;9;0;12308;0;0;0;0
20.11.20;23:15:00;1;413;10034;0;2;0;13162;0;0;0;0;3;0;8821;0;0;0;0;4;0;10153;0;0;0;0;5;0;0;0;0;0;0;0;0;6;0;25205;0;0;0;0;0;0;7;0;23486;0;0;0;0;8;0;12141;0;0;0;0;9;0;12308;0;0;0;0
20.11.20;23:10:00;1;459;10001;0;2;0;13162;0;0;0;0;3;0;8821;0;0;0;0;4;0;10153;0;0;0;0;5;0;0;0;0;0;0;0;0;6;0;25205;0;0;0;0;0;0;7;0;23486;0;0;0;0;8;0;12141;0;0;0;0;9;0;12308;0;0;0;0
20.11.20;23:05:00;1;441;9962;0;2;0;13162;0;0;0;0;3;0;8821;0;0;0;0;4;0;10153;0;0;0;0;5;0;0;0;0;0;0;0;0;6;0;25205;0;0;0;0;0;0;7;0;23486;0;0;0;0;8;0;12141;0;0;0;0;9;0;12308;0;0;0;0
20.11.20;23:00:00;1;403;9924;0;2;0;13162;0;0;0;0;3;0;8821;0;0;0;0;4;0;10153;0;0;0;0;5;0;0;0;0;0;0;0;0;6;0;25205;0;0;0;0;0;0;7;0;23486;0;0;0;0;8;0;12141;0;0;0;0;9;0;12308;0;0;0;0
20.11.20;22:55:00;1;386;9891;0;2;0;13162;0;0;0;0;3;0;8821;0;0;0;0;4;0;10153;0;0;0;0;5;0;0;0;0;0;0;0;0;6;0;25205;2;0;0;0;0;0;7;0;23486;0;0;0;0;8;0;12141;0;0;0;0;9;0;12308;0;0;0;0
20.11.20;22:50:00;1;464;9858;0;2;0;13162;0;0;0;0;3;0;8821;0;0;0;0;4;0;10153;0;0;0;0;5;0;0;0;0;0;0;0;0;6;0;25205;2;0;0;0;0;0;7;0;23486;0;0;0;0;8;0;12141;0;0;0;0;9;0;12308;0;0;0;0
20.11.20;22:45:00;1;453;9821;0;2;0;13162;0;0;0;0;3;0;8821;0;0;0;0;4;0;10153;0;0;0;0;5;0;0;0;0;0;0;0;0;6;0;25205;2;0;0;0;0;0;7;0;23486;0;0;0;0;8;0;12141;0;0;0;0;9;0;12308;0;0;0;0
20.11.20;22:40:00;1;486;9782;0;2;0;13162;0;0;0;0;3;0;8821;0;0;0;0;4;0;10153;0;0;0;0;5;0;0;0;0;0;0;0;0;6;0;25205;2;0;0;0;0;0;7;0;23486;0;0;0;0;8;0;12141;0;0;0;0;9;0;12308;0;0;0;0
20.11.20;22:35:00;1;508;9741;0;2;0;13162;0;0;0;0;3;0;8821;0;0;0;0;4;0;10153;0;0;0;0;5;0;0;0;0;0;0;0;0;6;0;25205;2;0;0;0;0;0;7;0;23486;0;0;0;0;8;0;12141;0;0;0;0;9;0;12308;0;0;0;0
20.11.20;22:30:00;1;487;9699;0;2;0;13162;0;0;0;0;3;0;8821;0;0;0;0;4;0;10153;0;0;0;0;5;0;0;0;0;0;0;0;0;6;0;25205;2;0;0;0;0;0;7;0;23486;0;0;0;0;8;0;12141;0;0;0;0;9;0;12308;0;0;0;0
20.11.20;22:25:00;1;405;9661;0;2;0;13162;0;0;0;0;3;0;8821;0;0;0;0;4;0;10153;0;0;0;0;5;0;0;0;0;0;0;0;0;6;0;25205;2;0;0;0;0;0;7;0;23486;0;0;0;0;8;0;12141;0;0;0;0;9;0;12308;0;0;0;0
20.11.20;22:20:00;1;389;9627;0;2;0;13162;0;0;0;0;3;0;8821;0;0;0;0;4;0;10153;0;0;0;0;5;0;0;0;0;0;0;0;0;6;0;25205;2;0;0;0;0;0;7;0;23486;0;0;0;0;8;0;12141;0;0;0;0;9;0;12308;0;0;0;0
20.11.20;22:15:00;1;423;9595;0;2;0;13162;0;0;0;0;3;0;8821;0;0;0;0;4;0;10153;0;0;0;0;5;0;0;0;0;0;0;0;0;6;0;25205;2;0;0;0;0;0;7;0;23486;0;0;0;0;8;0;12141;0;0;0;0;9;0;12308;0;0;0;0
20.11.20;22:10:00;1;391;9559;0;2;0;13162;0;0;0;0;3;0;8821;0;0;0;0;4;0;10153;0;0;0;0;5;0;0;0;0;0;0;0;0;6;0;25205;2;0;0;0;0;0;7;0;23486;0;0;0;0;8;0;12141;0;0;0;0;9;0;12308;0;0;0;0
20.11.20;22:05:00;1;346;9525;0;2;0;13162;0;0;0;0;3;0;8821;0;0;0;0;4;0;10153;0;0;0;0;5;0;0;0;0;0;0;0;0;6;0;25205;2;0;0;0;0;0;7;0;23486;0;0;0;0;8;0;12141;0;0;0;0;9;0;12308;0;0;0;0
20.11.20;22:00:00;1;241;9499;0;2;0;13162;0;0;0;0;3;0;8821;0;0;0;0;4;0;10153;0;0;0;0;5;0;0;0;0;0;0;0;0;6;0;25205;2;0;0;0;0;0;7;0;23486;0;0;0;0;8;0;12141;0;0;0;0;9;0;12308;0;0;0;0
20.11.20;21:55:00;1;264;9478;0;2;0;13162;0;0;0;0;3;0;8821;0;0;0;0;4;0;10153;0;0;0;0;5;0;0;0;0;0;0;0;0;6;0;25205;2;0;0;0;0;0;7;0;23486;0;0;0;0;8;0;12141;0;0;0;0;9;0;12308;0;0;0;0
20.11.20;21:50:00;1;303;9457;0;2;0;13162;0;0;0;0;3;0;8821;0;0;0;0;4;0;10153;0;0;0;0;5;0;0;0;0;0;0;0;0;6;0;25205;2;0;0;0;0;0;7;0;23486;0;0;0;0;8;0;12141;0;0;0;0;9;0;12308;0;0;0;0
20.11.20;21:45:00;1;380;9432;0;2;0;13162;0;0;0;0;3;0;8821;0;0;0;0;4;0;10153;0;0;0;0;5;0;0;0;0;0;0;0;0;6;0;25205;2;0;0;0;0;0;7;0;23486;0;0;0;0;8;0;12141;0;0;0;0;9;0;12308;0;0;0;0
20.11.20;21:40:00;1;351;9400;0;2;0;13162;0;0;0;0;3;0;8821;0;0;0;0;4;0;10153;0;0;0;0;5;0;0;0;0;0;0;0;0;6;0;25205;2;0;0;0;0;0;7;0;23486;0;0;0;0;8;0;12141;0;0;0;0;9;0;12308;0;0;0;0
20.11.20;21:35:00;1;333;9370;0;2;0;13162;0;0;0;0;3;0;8821;0;0;0;0;4;0;10153;0;0;0;0;5;0;0;0;0;0;0;0;0;6;0;25205;2;0;0;0;0;0;7;0;23486;0;0;0;0;8;0;12141;0;0;0;0;9;0;12308;0;0;0;0
20.11.20;21:30:00;1;289;9344;0;2;0;13162;0;0;0;0;3;0;8821;0;0;0;0;4;0;10153;0;0;0;0;5;0;0;0;0;0;0;0;0;6;0;25205;2;0;0;0;0;0;7;0;23486;0;0;0;0;8;0;12141;0;0;0;0;9;0;12308;0;0;0;0
20.11.20;21:25:00;1;278;9319;0;2;0;13162;0;0;0;0;3;0;8821;0;0;0;0;4;0;10153;0;0;0;0;5;0;0;0;0;0;0;0;0;6;0;25205;2;0;0;0;0;0;7;0;23486;0;0;0;0;8;0;12141;0;0;0;0;9;0;12308;0;0;0;0
20.11.20;21:20:00;1;241;9296;0;2;0;13162;0;0;0;0;3;0;8821;0;0;0;0;4;0;10153;0;0;0;0;5;0;0;0;0;0;0;0;0;6;0;25205;2;0;0;0;0;0;7;0;23486;0;0;0;0;8;0;12141;0;0;0;0;9;0;12308;0;0;0;0
20.11.20;21:15:00;1;340;9276;0;2;0;13162;0;0;0;0;3;0;8821;0;0;0;0;4;0;10153;0;0;0;0;5;0;0;0;0;0;0;0;0;6;0;25205;2;0;0;0;0;0;7;0;23486;0;0;0;0;8;0;12141;0;0;0;0;9;0;12308;0;0;0;0
20.11.20;21:10:00;1;249;9248;0;2;0;13162;0;0;0;0;3;0;8821;0;0;0;0;4;0;10153;0;0;0;0;5;0;0;0;0;0;0;0;0;6;0;25205;2;0;0;0;0;0;7;0;23486;0;0;0;0;8;0;12141;0;0;0;0;9;0;12308;0;0;0;0
20.11.20;21:05:00;1;240;9227;0;2;0;13162;0;0;0;0;3;0;8821;0;0;0;0;4;0;10153;0;0;0;0;5;0;0;0;0;0;0;0;0;6;0;25205;2;0;0;0;0;0;7;0;23486;0;0;0;0;8;0;12141;0;0;0;0;9;0;12308;0;0;0;0
20.11.20;21:00:00;1;300;9207;0;2;0;13162;0;0;0;0;3;0;8821;0;0;0;0;4;0;10153;0;0;0;0;5;0;0;0;0;0;0;0;0;6;0;25205;2;0;0;0;0;0;7;0;23486;0;0;0;0;8;0;12141;0;0;0;0;9;0;12308;0;0;0;0
20.11.20;20:55:00;1;291;9183;0;2;0;13162;0;0;0;0;3;0;8821;0;0;0;0;4;0;10153;0;0;0;0;5;0;0;0;0;0;0;0;0;6;0;25205;2;0;0;0;0;0;7;0;23486;0;0;0;0;8;0;12141;0;0;0;0;9;0;12308;0;0;0;0
20.11.20;20:50:00;1;303;9157;0;2;0;13162;0;0;0;0;3;0;8821;0;0;0;0;4;0;10153;0;0;0;0;5;0;0;0;0;0;0;0;0;6;0;25205;2;0;0;0;0;0;7;0;23486;0;0;0;0;8;0;12141;0;0;0;0;9;0;12308;0;0;0;0
20.11.20;20:45:00;1;314;9133;0;2;0;13162;0;0;0;0;3;0;8821;0;0;0;0;4;0;10153;0;0;0;0;5;0;0;0;0;0;0;0;0;6;0;25205;2;0;0;0;0;0;7;0;23486;0;0;0;0;8;0;12141;0;0;0;0;9;0;12308;0;0;0;0
20.11.20;20:40:00;1;240;9105;0;2;0;13162;0;0;0;0;3;0;8821;0;0;0;0;4;0;10153;0;0;0;0;5;0;0;0;0;0;0;0;0;6;0;25205;2;0;0;0;0;0;7;0;23486;0;0;0;0;8;0;12141;0;0;0;0;9;0;12308;0;0;0;0
20.11.20;20:35:00;1;281;9085;0;2;0;13162;0;0;0;0;3;0;8821;0;0;0;0;4;0;10153;0;0;0;0;5;0;0;0;0;0;0;0;0;6;0;25205;2;0;0;0;0;0;7;0;23486;0;0;0;0;8;0;12141;0;0;0;0;9;0;12308;0;0;0;0
20.11.20;20:30:00;1;369;9063;0;2;0;13162;0;0;0;0;3;0;8821;0;0;0;0;4;0;10153;0;0;0;0;5;0;0;0;0;0;0;0;0;6;0;25205;2;0;0;0;0;0;7;0;23486;0;0;0;0;8;0;12141;0;0;0;0;9;0;12308;0;0;0;0
20.11.20;20:25:00;1;420;9032;0;2;0;13162;0;0;0;0;3;0;8821;0;0;0;0;4;0;10153;0;0;0;0;5;0;0;0;0;0;0;0;0;6;0;25205;2;0;0;0;0;0;7;0;23486;0;0;0;0;8;0;12141;0;0;0;0;9;0;12308;0;0;0;0
20.11.20;20:20:00;1;546;8998;0;2;0;13162;0;0;0;0;3;0;8821;0;0;0;0;4;0;10153;0;0;0;0;5;0;0;0;0;0;0;0;0;6;0;25205;2;0;0;0;0;0;7;0;23486;0;0;0;0;8;0;12141;0;0;0;0;9;0;12308;0;0;0;0
20.11.20;20:15:00;1;821;8955;0;2;0;13162;0;0;0;0;3;0;8821;0;0;0;0;4;0;10153;0;0;0;0;5;0;0;0;0;0;0;0;0;6;0;25205;2;0;0;0;0;0;7;0;23486;0;0;0;0;8;0;12141;0;0;0;0;9;0;12308;0;0;0;0
20.11.20;20:10:00;1;856;8885;0;2;0;13162;0;0;0;0;3;0;8821;0;0;0;0;4;0;10153;0;0;0;0;5;0;0;0;0;0;0;0;0;6;0;25205;2;0;0;0;0;0;7;0;23486;0;0;0;0;8;0;12141;0;0;0;0;9;0;12308;0;0;0;0
20.11.20;20:05:00;1;895;8814;0;2;0;13162;0;0;0;0;3;0;8821;0;0;0;0;4;0;10153;0;0;0;0;5;0;0;0;0;0;0;0;0;6;0;25205;2;0;0;0;0;0;7;0;23486;0;0;0;0;8;0;12141;0;0;0;0;9;0;12308;0;0;0;0
20.11.20;20:00:00;1;861;8736;0;2;0;13162;0;0;0;0;3;0;8821;0;0;0;0;4;0;10153;0;0;0;0;5;0;0;0;0;0;0;0;0;6;0;25205;2;0;0;0;0;0;7;0;23486;0;0;0;0;8;0;12141;0;0;0;0;9;0;12308;0;0;0;0
20.11.20;19:55:00;1;836;8665;0;2;0;13162;0;0;0;0;3;0;8821;0;0;0;0;4;0;10153;0;0;0;0;5;0;0;0;0;0;0;0;0;6;0;25205;2;0;0;0;0;0;7;0;23486;0;0;0;0;8;0;12141;0;0;0;0;9;0;12308;0;0;0;0
20.11.20;19:50:00;1;865;8583;0;2;0;13162;0;0;0;0;3;0;8821;0;0;0;0;4;0;10153;0;0;0;0;5;0;0;0;0;0;0;0;0;6;0;25205;2;0;0;0;0;0;7;0;23486;0;0;0;0;8;0;12141;0;0;0;0;9;0;12308;0;0;0;0
20.11.20;19:45:00;1;868;8510;0;2;0;13162;0;0;0;0;3;0;8821;0;0;0;0;4;0;10153;0;0;0;0;5;0;0;0;0;0;0;0;0;6;0;25205;2;0;0;0;0;0;7;0;23486;0;0;0;0;8;0;12141;0;0;0;0;9;0;12308;0;0;0;0
20.11.20;19:40:00;1;795;8441;0;2;0;13162;0;0;0;0;3;0;8821;0;0;0;0;4;0;10153;0;0;0;0;5;0;0;0;0;0;0;0;0;6;0;25205;2;0;0;0;0;0;7;0;23486;0;0;0;0;8;0;12141;0;0;0;0;9;0;12308;0;0;0;0
20.11.20;19:35:00;1;798;8375;0;2;0;13162;0;0;0;0;3;0;8821;0;0;0;0;4;0;10153;0;0;0;0;5;0;0;0;0;0;0;0;0;6;0;25205;2;0;0;0;0;0;7;0;23486;0;0;0;0;8;0;12141;0;0;0;0;9;0;12308;0;0;0;0
20.11.20;19:30:00;1;796;8308;0;2;0;13162;0;0;0;0;3;0;8821;0;0;0;0;4;0;10153;0;0;0;0;5;0;0;0;0;0;0;0;0;6;0;25205;2;0;0;0;0;0;7;0;23486;0;0;0;0;8;0;12141;0;0;0;0;9;0;12308;0;0;0;0
20.11.20;19:25:00;1;763;8231;0;2;0;13162;0;0;0;0;3;0;8821;0;0;0;0;4;0;10153;0;0;0;0;5;0;0;0;0;0;0;0;0;6;0;25205;2;0;0;0;0;0;7;0;23486;0;0;0;0;8;0;12141;0;0;0;0;9;0;12308;0;0;0;0
20.11.20;19:20:00;1;690;8167;0;2;0;13162;0;0;0;0;3;0;8821;0;0;0;0;4;0;10153;0;0;0;0;5;0;0;0;0;0;0;0;0;6;0;25205;2;0;0;0;0;0;7;0;23486;0;0;0;0;8;0;12141;0;0;0;0;9;0;12308;0;0;0;0
20.11.20;19:15:00;1;874;8113;0;2;0;13162;0;0;0;0;3;0;8821;0;0;0;0;4;0;10153;0;0;0;0;5;0;0;0;0;0;0;0;0;6;0;25205;2;0;0;0;0;0;7;0;23486;0;0;0;0;8;0;12141;0;0;0;0;9;0;12308;0;0;0;0
20.11.20;19:10:00;1;631;8051;0;2;0;13162;0;0;0;0;3;0;8821;0;0;0;0;4;0;10153;0;0;0;0;5;0;0;0;0;0;0;0;0;6;0;25205;2;0;0;0;0;0;7;0;23486;0;0;0;0;8;0;12141;0;0;0;0;9;0;12308;0;0;0;0
20.11.20;19:05:00;1;651;7998;0;2;0;13162;0;0;0;0;3;0;8821;0;0;0;0;4;0;10153;0;0;0;0;5;0;0;0;0;0;0;0;0;6;0;25205;2;0;0;0;0;0;7;0;23486;0;0;0;0;8;0;12141;0;0;0;0;9;0;12308;0;0;0;0
20.11.20;19:00:00;1;718;7944;0;2;0;13162;0;0;0;0;3;0;8821;0;0;0;0;4;0;10153;0;0;0;0;5;0;0;0;0;0;0;0;0;6;0;25205;2;0;0;0;0;0;7;0;23486;0;0;0;0;8;0;12141;0;0;0;0;9;0;12308;0;0;0;0
20.11.20;18:55:00;1;621;7884;0;2;0;13162;0;0;0;0;3;0;8821;0;0;0;0;4;0;10153;0;0;0;0;5;0;0;0;0;0;0;0;0;6;0;25205;2;0;0;0;0;0;7;0;23486;0;0;0;0;8;0;12141;0;0;0;0;9;0;12308;0;0;0;0
20.11.20;18:50:00;1;522;7832;0;2;0;13162;0;0;0;0;3;0;8821;0;0;0;0;4;0;10153;0;0;0;0;5;0;0;0;0;0;0;0;0;6;0;25205;2;0;0;0;0;0;7;0;23486;0;0;0;0;8;0;12141;0;0;0;0;9;0;12308;0;0;0;0
20.11.20;18:45:00;1;506;7788;0;2;0;13162;0;0;0;0;3;0;8821;0;0;0;0;4;0;10153;0;0;0;0;5;0;0;0;0;0;0;0;0;6;0;25205;2;0;0;0;0;0;7;0;23486;0;0;0;0;8;0;12141;0;0;0;0;9;0;12308;0;0;0;0
20.11.20;18:40:00;1;460;7745;0;2;0;13162;0;0;0;0;3;0;8821;0;0;0;0;4;0;10153;0;0;0;0;5;0;0;0;0;0;0;0;0;6;0;25205;2;0;0;0;0;0;7;0;23486;0;0;0;0;8;0;12141;0;0;0;0;9;0;12308;0;0;0;0
20.11.20;18:35:00;1;444;7707;0;2;0;13162;0;0;0;0;3;0;8821;0;0;0;0;4;0;10153;0;0;0;0;5;0;0;0;0;0;0;0;0;6;0;25205;2;0;0;0;0;0;7;0;23486;0;0;0;0;8;0;12141;0;0;0;0;9;0;12308;0;0;0;0
20.11.20;18:30:00;1;493;7669;0;2;0;13162;0;0;0;0;3;0;8821;0;0;0;0;4;0;10153;0;0;0;0;5;0;0;0;0;0;0;0;0;6;0;25205;2;0;0;0;0;0;7;0;23486;0;0;0;0;8;0;12141;0;0;0;0;9;0;12308;0;0;0;0
20.11.20;18:25:00;1;503;7628;0;2;0;13162;0;0;0;0;3;0;8821;0;0;0;0;4;0;10153;0;0;0;0;5;0;0;0;0;0;0;0;0;6;0;25205;2;0;0;0;0;0;7;0;23486;0;0;0;0;8;0;12141;0;0;0;0;9;0;12308;0;0;0;0
20.11.20;18:20:00;1;505;7585;0;2;0;13162;0;0;0;0;3;0;8821;0;0;0;0;4;0;10153;0;0;0;0;5;0;0;0;0;0;0;0;0;6;0;25205;2;0;0;0;0;0;7;0;23486;0;0;0;0;8;0;12141;0;0;0;0;9;0;12308;0;0;0;0
20.11.20;18:15:00;1;491;7545;0;2;0;13162;0;0;0;0;3;0;8821;0;0;0;0;4;0;10153;0;0;0;0;5;0;0;0;0;0;0;0;0;6;0;25205;2;0;0;0;0;0;7;0;23486;0;0;0;0;8;0;12141;0;0;0;0;9;0;12308;0;0;0;0
20.11.20;18:10:00;1;493;7504;0;2;0;13162;0;0;0;0;3;0;8821;0;0;0;0;4;0;10153;0;0;0;0;5;0;0;0;0;0;0;0;0;6;0;25205;2;0;0;0;0;0;7;0;23486;0;0;0;0;8;0;12141;0;0;0;0;9;0;12308;0;0;0;0
20.11.20;18:05:00;1;518;7463;0;2;0;13162;0;0;0;0;3;0;8821;0;0;0;0;4;0;10153;0;0;0;0;5;0;0;0;0;0;0;0;0;6;0;25205;2;0;0;0;0;0;7;0;23486;0;0;0;0;8;0;12141;0;0;0;0;9;0;12308;0;0;0;0
20.11.20;18:00:00;1;455;7419;0;2;0;13162;0;0;0;0;3;0;8821;0;0;0;0;4;0;10153;0;0;0;0;5;0;0;0;0;0;0;0;0;6;0;25205;2;0;0;0;0;0;7;0;23486;0;0;0;0;8;0;12141;0;0;0;0;9;0;12308;0;0;0;0
20.11.20;17:55:00;1;496;7382;0;2;0;13162;0;0;0;0;3;0;8821;0;0;0;0;4;0;10153;0;0;0;0;5;0;0;0;0;0;0;0;0;6;0;25205;2;0;0;0;0;0;7;0;23486;0;0;0;0;8;0;12141;0;0;0;0;9;0;12308;0;0;0;0
20.11.20;17:50:00;1;426;7340;0;2;0;13162;0;0;0;0;3;0;8821;0;0;0;0;4;0;10153;0;0;0;0;5;0;0;0;0;0;0;0;0;6;0;25205;2;0;0;0;0;0;7;0;23486;0;0;0;0;8;0;12141;0;0;0;0;9;0;12308;0;0;0;0
20.11.20;17:45:00;1;429;7304;0;2;0;13162;0;0;0;0;3;0;8821;0;0;0;0;4;0;10153;0;0;0;0;5;0;0;0;0;0;0;0;0;6;0;25205;2;0;0;0;0;0;7;0;23486;0;0;0;0;8;0;12141;0;0;0;0;9;0;12308;0;0;0;0
20.11.20;17:40:00;1;426;7269;0;2;0;13162;0;0;0;0;3;0;8821;0;0;0;0;4;0;10153;0;0;0;0;5;0;0;0;0;0;0;0;0;6;0;25205;2;0;0;0;0;0;7;0;23486;0;0;0;0;8;0;12141;0;0;0;0;9;0;12308;0;0;0;0
20.11.20;17:35:00;1;480;7233;0;2;0;13162;0;0;0;0;3;0;8821;0;0;0;0;4;0;10153;0;0;0;0;5;0;0;0;0;0;0;0;0;6;0;25205;2;0;0;0;0;0;7;0;23486;0;0;0;0;8;0;12141;0;0;0;0;9;0;12308;0;0;0;0
20.11.20;17:30:00;1;569;7194;0;2;0;13162;0;0;0;0;3;0;8821;0;0;0;0;4;0;10153;0;0;0;0;5;0;0;0;0;0;0;0;0;6;0;25205;2;0;0;0;0;0;7;0;23486;0;0;0;0;8;0;12141;0;0;0;0;9;0;12308;0;0;0;0
20.11.20;17:25:00;1;615;7146;0;2;0;13162;0;0;0;0;3;0;8821;0;0;0;0;4;0;10153;0;0;0;0;5;0;0;0;0;0;0;0;0;6;0;25205;2;0;0;0;0;0;7;0;23486;0;0;0;0;8;0;12141;0;0;0;0;9;0;12308;0;0;0;0
20.11.20;17:20:00;1;596;7095;0;2;0;13162;0;0;0;0;3;0;8821;0;0;0;0;4;0;10153;0;0;0;0;5;0;0;0;0;0;0;0;0;6;0;25205;2;0;0;0;0;0;7;0;23486;0;0;0;0;8;0;12141;0;0;0;0;9;0;12308;0;0;0;0
20.11.20;17:15:00;1;573;7045;0;2;0;13162;0;0;0;0;3;0;8821;0;0;0;0;4;0;10153;0;0;0;0;5;0;0;0;0;0;0;0;0;6;0;25205;2;0;0;0;0;0;7;0;23486;0;0;0;0;8;0;12141;0;0;0;0;9;0;12308;0;0;0;0
20.11.20;17:10:00;1;618;6997;0;2;0;13162;0;0;0;0;3;0;8821;0;0;0;0;4;0;10153;0;0;0;0;5;0;0;0;0;0;0;0;0;6;0;25205;2;0;0;0;0;0;7;0;23486;0;0;0;0;8;0;12141;0;0;0;0;9;0;12308;0;0;0;0
20.11.20;17:05:00;1;496;6949;0;2;0;13162;0;0;0;0;3;0;8821;0;0;0;0;4;0;10153;0;0;0;0;5;0;0;0;0;0;0;0;0;6;0;25205;2;0;0;0;0;0;7;0;23486;0;0;0;0;8;0;12141;0;0;0;0;9;0;12308;0;0;0;0
20.11.20;17:00:00;1;539;6907;0;2;0;13162;0;0;0;0;3;0;8821;0;0;0;0;4;0;10153;0;0;0;0;5;0;0;0;0;0;0;0;0;6;0;25205;2;0;0;0;0;0;7;0;23486;0;0;0;0;8;0;12141;0;0;0;0;9;0;12308;0;0;0;0
20.11.20;16:55:00;1;477;6857;0;2;0;13162;0;0;0;0;3;0;8821;0;0;0;0;4;0;10153;0;0;0;0;5;0;0;0;0;0;0;0;0;6;0;25205;2;0;0;0;0;0;7;0;23486;0;0;0;0;8;0;12141;0;0;0;0;9;0;12308;0;0;0;0
20.11.20;16:50:00;1;479;6816;0;2;0;13162;0;0;0;0;3;0;8821;0;0;0;0;4;0;10153;0;0;0;0;5;0;0;0;0;0;0;0;0;6;0;25205;2;0;0;0;0;0;7;0;23486;0;0;0;0;8;0;12141;0;0;0;0;9;0;12308;0;0;0;0
20.11.20;16:45:00;1;492;6776;0;2;0;13162;0;0;0;0;3;0;8821;0;0;36;2;4;0;10153;0;0;0;0;5;0;0;0;0;0;0;0;0;6;0;25205;2;0;0;0;0;0;7;0;23486;0;0;0;0;8;0;12141;0;0;0;0;9;0;12308;0;0;0;0
20.11.20;16:40:00;1;492;6735;0;2;0;13162;2;0;277;16;3;0;8821;6;0;308;18;4;0;10153;0;0;37;8;5;0;0;0;0;0;0;0;0;6;0;25205;2;0;0;0;0;0;7;0;23486;0;0;0;0;8;0;12141;0;0;0;0;9;0;12308;0;0;0;0
20.11.20;16:35:00;1;509;6694;0;2;0;13162;6;0;318;17;3;0;8821;6;0;381;19;4;0;10153;2;0;91;14;5;0;0;0;0;0;0;0;0;6;0;25205;1;2;1;73;126;12;7;0;23486;0;0;0;0;8;0;12141;0;0;0;0;9;0;12308;0;0;0;0
20.11.20;16:30:00;1;547;6652;0;2;0;13162;6;0;356;17;3;0;8821;6;1;424;19;4;0;10153;1;0;133;15;5;0;0;0;0;0;0;0;0;6;0;25205;23;5;4;233;449;26;7;0;23486;11;0;279;21;8;0;12141;0;0;243;16;9;0;12308;6;0;296;15
20.11.20;16:25:00;1;481;6605;0;2;0;13162;6;0;377;18;3;0;8821;6;1;445;19;4;0;10153;1;0;167;15;5;0;0;0;0;0;0;0;0;6;0;25205;23;0;10;565;180;26;7;0;23486;6;0;343;21;8;0;12141;6;0;344;19;9;0;12308;6;0;362;16
20.11.20;16:20:00;1;537;6565;0;2;0;13162;6;0;393;18;3;0;8821;6;0;498;20;4;0;10153;1;0;197;16;5;0;0;0;0;0;0;0;0;6;0;25205;23;6;3;208;565;27;7;0;23486;6;0;394;21;8;0;12141;6;0;396;19;9;0;12308;6;0;412;16
20.11.20;16:15:00;1;604;6521;0;2;0;13162;6;0;409;19;3;1;8821;4;3;499;20;4;0;10153;3;0;215;16;5;0;0;0;0;0;0;0;0;6;16;25205;1;5;16;555;536;27;7;0;23486;6;2;416;22;8;0;12141;6;1;425;20;9;0;12308;6;1;464;16
20.11.20;16:10:00;1;588;6470;0;2;3;13162;6;9;414;19;3;1;8821;6;6;519;20;4;0;10153;3;0;200;17;5;0;0;0;0;0;0;0;0;6;65;25203;4;31;41;467;444;28;7;0;23486;6;0;485;22;8;1;12141;6;4;466;20;9;1;12308;6;3;511;17
20.11.20;16:05:00;1;564;6419;0;2;34;13162;6;63;379;20;3;3;8821;6;8;530;21;4;11;10153;3;11;200;17;5;0;0;0;0;0;0;0;0;6;83;25198;4;30;41;467;444;28;7;2;23486;3;7;481;23;8;1;12141;6;7;481;20;9;0;12308;6;4;529;17
20.11.20;16:00:00;1;631;6373;0;2;51;13159;4;85;382;21;3;7;8820;6;19;510;21;4;15;10152;3;16;199;17;5;0;0;0;0;0;0;0;0;6;95;25191;4;32;42;467;444;29;7;4;23485;6;9;485;24;8;5;12141;4;16;464;21;9;3;12308;4;10;506;17
20.11.20;15:55:00;1;396;6321;0;2;57;13155;4;91;376;22;3;4;8820;6;9;537;22;4;18;10151;3;19;198;17;5;0;0;0;0;0;0;0;0;6;104;25182;4;44;60;467;444;29;7;12;23485;6;22;454;24;8;6;12140;6;9;481;21;9;4;12307;3;12;512;18
20.11.20;15:50:00;1;370;6287;0;2;78;13150;4;113;362;22;3;5;8819;6;10;545;22;4;45;10149;3;47;198;18;5;0;0;0;0;0;0;0;0;6;127;25173;4;62;77;467;444;29;7;44;23484;4;83;407;25;8;44;12140;4;81;392;22;9;5;12307;6;13;526;18
20.11.20;15:45:00;1;296;6256;0;2;328;13144;4;369;367;23;3;171;8819;4;210;437;23;4;113;10145;3;118;200;18;5;0;0;0;0;0;0;0;0;6;270;25163;4;120;131;471;461;29;7;282;23480;4;317;385;25;8;100;12136;4;140;477;22;9;6;12306;6;10;558;19
20.11.20;15:40:00;1;285;6231;0;2;135;13118;4;171;376;24;3;73;8806;4;112;462;24;4;65;10136;5;68;198;18;5;0;0;0;0;0;0;0;0;6;174;25140;4;76;83;467;444;29;7;112;23458;4;143;418;26;8;73;12128;4;116;449;22;9;9;12306;6;16;534;19
20.11.20;15:35:00;1;310;6207;0;2;119;13106;4;154;369;25;3;66;8800;4;105;468;24;4;62;10131;3;64;198;18;5;0;0;0;0;0;0;0;0;6;171;25125;4;82;91;467;444;29;7;100;23449;4;138;408;26;8;87;12122;4;127;443;23;9;8;12305;6;12;554;20
20.11.20;15:30:00;1;312;6180;0;2;127;13097;4;167;381;26;3;71;8794;4;110;457;25;4;66;10125;3;68;199;19;5;0;0;0;0;0;0;0;0;6;190;25111;4;100;114;494;464;29;7;108;23440;4;153;443;27;8;112;12114;4;146;409;23;9;21;12304;4;34;523;21
20.11.20;15:25:00;1;300;6153;0;2;958;13086;4;1025;395;28;3;515;8788;4;568;465;26;4;258;10120;5;269;217;19;5;0;0;0;0;0;0;0;0;6;904;25094;4;420;494;514;575;30;7;989;23431;4;1054;496;28;8;833;12105;4;886;413;23;9;90;12303;4;122;479;22
20.11.20;15:20:00;1;260;6128;0;2;698;13013;4;759;402;29;3;377;8749;4;425;455;26;4;271;10099;5;282;239;20;5;0;0;0;0;0;0;0;0;6;755;25024;4;358;379;578;574;30;7;753;23354;4;808;462;28;8;681;12038;4;733;432;24;9;160;12295;4;190;374;23
20.11.20;15:15:00;1;255;6106;0;2;1385;12956;4;1472;406;31;3;737;8718;4;795;457;27;4;409;10077;5;426;233;20;5;0;0;0;0;0;0;0;0;6;1418;24955;4;731;734;610;583;30;7;1959;23292;4;2069;486;29;8;1797;11982;4;1884;447;24;9;494;12282;4;534;356;24
20.11.20;15:10:00;1;226;6084;0;2;1496;12836;4;1581;392;32;3;879;8654;4;940;427;27;4;429;10042;5;447;237;20;5;0;0;0;0;0;0;0;0;6;1591;24830;4;807;815;585;593;30;7;2444;23122;4;2568;474;29;8;2292;11827;4;2402;452;24;9;803;12239;4;854;358;25
20.11.20;15:05:00;1;282;6064;0;2;1955;12711;4;2067;400;33;3;1094;8580;4;1166;439;28;4;511;10006;5;532;234;21;5;0;0;0;0;0;0;0;0;6;2009;24701;4;1047;1042;618;588;30;7;2869;22918;4;3009;490;29;8;2724;11636;4;2854;472;23;9;1052;12172;4;1113;376;26
20.11.20;15:00:00;1;304;6041;0;2;2207;12548;4;2330;398;34;3;1247;8489;4;1324;445;29;4;658;9964;5;685;242;21;5;0;0;0;0;0;0;0;0;6;2447;24528;4;1266;1242;616;592;31;7;3233;22678;4;3393;486;30;8;3152;11407;4;3304;479;22;9;1315;12084;4;1390;422;27
20.11.20;14:55:00;1;232;6016;0;2;2450;12365;4;2585;402;34;3;1394;8385;4;1472;443;29;4;851;9909;5;886;250;21;5;0;0;0;0;0;0;0;0;6;2793;24323;4;1427;1396;615;595;31;7;3542;22409;4;3726;488;30;8;3473;11146;4;3643;483;22;9;1618;11975;4;1707;471;28
20.11.20;14:50:00;1;251;5997;0;2;2687;12161;4;2838;422;35;3;1482;8269;4;1570;451;29;4;894;9838;5;931;244;21;5;0;0;0;0;0;0;0;0;6;3005;24089;4;1554;1509;615;592;31;7;3714;22114;4;3899;481;30;8;3534;10857;4;3707;482;20;9;1664;11840;4;1765;494;28
20.11.20;14:45:00;1;299;5976;0;2;2862;11937;4;3024;419;35;3;1657;8145;4;1754;481;30;4;1033;9764;5;1076;254;22;5;0;0;0;0;0;0;0;0;6;3284;23837;4;1714;1667;612;592;31;7;3939;21805;4;4128;482;30;8;2462;10562;4;2573;495;19;9;1936;11701;4;2054;513;29
20.11.20;14:40:00;1;315;5951;0;2;2979;11697;4;3141;424;35;3;1819;8007;4;1927;504;30;4;1109;9677;5;1155;256;22;5;0;0;0;0;0;0;0;0;6;3469;23560;4;1786;1740;613;593;31;7;4083;21476;4;4275;480;30;8;857;10373;6;899;472;20;9;2154;11540;4;2281;529;29
20.11.20;14:35:00;1;320;5925;0;2;3023;11449;4;3187;418;35;3;1905;7856;4;2015;519;30;4;1062;9585;5;1107;258;22;5;0;0;0;0;0;0;0;0;6;3541;23270;4;1821;1771;613;595;31;7;4158;21136;4;4361;484;30;8;2034;10302;4;2131;472;23;9;2235;11361;4;2362;532;29
20.11.20;14:30:00;1;257;5897;0;2;3059;11203;4;3231;426;34;3;1992;7700;4;2111;532;30;4;1104;9498;5;1150;258;22;5;0;0;0;0;0;0;0;0;6;3686;22981;4;1890;1850;616;596;30;7;4243;20796;4;4455;485;29;8;2067;10136;4;2171;475;23;9;2284;11178;4;2417;528;29
20.11.20;14:25:00;1;211;5875;0;2;3058;10943;4;3228;421;34;3;1998;7530;4;2115;531;30;4;1103;9404;5;1149;251;22;5;0;0;0;0;0;0;0;0;6;3730;22668;4;1948;1889;618;593;30;7;4261;20436;4;4482;486;29;8;2087;9961;4;2187;474;22;9;2300;10984;4;2431;529;29
20.11.20;14:20:00;1;211;5858;0;2;3211;10688;4;3385;425;33;3;2100;7364;4;2221;529;29;4;1210;9312;5;1261;249;22;5;0;0;0;0;0;0;0;0;6;3978;22355;4;2032;1976;615;596;30;7;4487;20080;4;4715;482;28;8;2196;9786;4;2303;466;22;9;2426;10792;4;2569;527;28
20.11.20;14:15:00;1;210;5840;0;2;3267;10420;4;3444;427;32;3;2144;7189;4;2269;531;29;4;1277;9212;5;1330;253;23;5;0;0;0;0;0;0;0;0;6;4081;22023;4;2125;2073;616;596;30;7;4631;19707;4;4845;488;28;8;2264;9603;4;2377;476;22;9;2501;10590;4;2643;531;28
20.11.20;14:10:00;1;224;5822;0;2;3271;10147;4;3446;422;30;3;2158;7010;4;2282;538;28;4;1265;9105;5;1318;248;23;5;0;0;0;0;0;0;0;0;6;4179;21680;4;2186;2111;622;598;30;7;4800;19320;4;5026;489;28;8;2346;9414;4;2464;483;22;9;2585;10381;4;2733;536;27
20.11.20;14:05:00;1;239;5804;0;2;1721;9874;4;1819;404;28;3;1277;6830;4;1364;526;27;4;994;9000;5;1035;252;23;5;0;0;0;0;0;0;0;0;6;2654;21335;4;1357;1343;595;589;30;7;2897;18920;4;3047;491;28;8;1515;9219;4;1596;488;22;9;1760;10166;4;1870;540;25
20.11.20;14:00:00;1;246;5783;0;2;1036;9734;4;1112;417;28;3;699;6726;4;764;519;27;4;720;8918;5;750;249;23;5;0;0;0;0;0;0;0;0;6;1474;21115;4;764;764;604;581;30;7;1292;18686;4;1373;479;28;8;615;9097;4;670;484;22;9;649;10025;4;710;532;25
20.11.20;13:55:00;1;259;5763;0;2;795;9639;4;859;410;28;3;461;6661;4;516;508;27;4;504;8855;5;525;245;23;5;0;0;0;0;0;0;0;0;6;885;20998;4;424;444;593;568;31;7;937;18567;4;1001;477;29;8;444;9041;4;481;495;23;9;531;9969;4;586;522;25
20.11.20;13:50:00;1;243;5741;0;2;542;9572;4;599;406;29;3;339;6623;4;391;506;27;4;422;8812;5;439;238;24;5;0;0;0;0;0;0;0;0;6;754;20923;4;370;394;596;569;31;7;679;18490;4;731;471;30;8;310;9004;4;357;483;23;9;346;9926;4;393;520;26